Home   Weather   Sioux Falls   Past weeks

Flag for USA Past Weather in Sioux Falls, South Dakota, USA — Yesterday and Last 2 Weeks

Now
72 °F

Passing clouds.


Feels Like: 74 °F
Forecast: 58 / 84 °F
Wind: 10 mph from Northeast

Location: Foss Field

Current Time: Jul 23, 2017 at 9:58:03 pm

Latest Report: Jul 23, 2017 at 8:56 pm


Visibility: 10 mi

Pressure: 29.97 "Hg

Humidity: 71%

Dew Point: 62 °F

Location of Sioux FallsLocation

Past Weather in Sioux Falls — Graph

°F

Sioux Falls Temperature Yesterday

Maximum temperature yesterday: 88 °F (at 3:56 pm)
Minimum temperature yesterday: 69 °F (at 6:56 am)
Average temperature yesterday: 78 °F

High & Low Weather Summary for the Past Weeks

 TemperatureHumidityPressure
High96 °F (Jul 9, 4:56 pm)100% (Jul 19, 5:56 am)30.21 "Hg (Jul 19, 5:56 am)
Low58 °F (Jul 14, 3:56 am)35% (Jul 17, 2:56 pm)29.63 "Hg (Jul 9, 9:56 pm)
Average78 °F71%29.92 "Hg
* Reported Jul 8 7:56 pm — Jul 23 7:56 pm, Sioux Falls. Weather by CustomWeather, © 2017

Note: Actual official high and low records may vary slightly from our data, if they occured in-between our weather recording intervals... More about our weather records

Advertising

Sioux Falls Weather History for the Previous 24 Hours

Scroll right to see more
 ConditionsComfort  
Time TempWeatherWind HumidityBarometerVisibility
7:56 pm
Sun, Jul 23
75 °FScattered clouds.8 mph66%29.97 "Hg10 mi
6:56 pm78 °FScattered clouds.9 mph58%29.96 "Hg10 mi
5:56 pm80 °FScattered clouds.9 mph54%29.97 "Hg10 mi
4:56 pm81 °FScattered clouds.12 mph51%29.97 "Hg10 mi
3:56 pm80 °FScattered clouds.12 mph52%29.97 "Hg10 mi
2:56 pm80 °FScattered clouds.14 mph52%29.98 "Hg10 mi
1:56 pm79 °FPassing clouds.15 mph54%29.98 "Hg10 mi
12:56 pm79 °FPassing clouds.12 mph54%29.98 "Hg10 mi
11:56 am78 °FScattered clouds.10 mph58%29.99 "Hg10 mi
10:56 am76 °FPassing clouds.17 mph62%29.99 "Hg10 mi
9:56 am75 °FPassing clouds.8 mph66%29.98 "Hg10 mi
8:56 am72 °FPassing clouds.10 mph71%29.97 "Hg10 mi
7:56 am69 °FPassing clouds.No wind76%29.96 "Hg10 mi
6:56 am65 °FPassing clouds.No wind85%29.95 "Hg10 mi
5:56 am63 °FPassing clouds.No wind87%29.93 "Hg10 mi
4:56 am65 °FClear.6 mph81%29.92 "Hg10 mi
3:56 am67 °FClear.7 mph79%29.91 "Hg10 mi
2:56 am67 °FClear.9 mph85%29.90 "Hg10 mi
1:56 am70 °FClear.9 mph81%29.90 "Hg10 mi
12:56 am72 °FClear.3 mph81%29.90 "Hg10 mi
11:56 pm
Sat, Jul 22
73 °FClear.No wind81%29.89 "Hg10 mi
10:56 pm71 °FClear.3 mph87%29.89 "Hg10 mi
9:56 pm75 °FPassing clouds.No wind74%29.88 "Hg10 mi
Weather by CustomWeather, © 2017

See weather overviewHow to use our weather pages